Location: Saratoga Springs
(43.0831°N, 73.7850°W)
Time: 05:45:38
(UTC-04:00)

Vanguard 2 - Pass Details

Date: 26 April 2024
Orbit: 553 x 2914 km, 32.9° (Epoch: 17 May)

Event Time Altitude Azimuth Distance (km) Brightness Sun altitude
Rises 00:16:27 0° 222° (SW) 4,747 - -32.6°
Reaches altitude 10° 00:19:27 10° 214° (SW) 4,060 - -32.7°
Maximum altitude 00:29:54 39° 151° (SSE) 3,147 - -33.0°
Exits shadow 00:33:18 36° 126° (SE) 3,489 10.4 -33.1°
Drops below altitude 10° 00:44:31 10° 91° (E) 5,647 11.9 -33.2°
Sets 00:49:34 0° 85° (E) 6,754 12.4 -33.2°
